Prague, Czech Republic

9:21 AM CEST on April 27, 2017 (GMT +0200)
Ruzyne

Weather History for LKPR - March, 2012

Change the Weather History Date:

Monday, March 26, 2012

  Actual Average Record
Temperature  
Mean Temperature 45 °F -  
Max Temperature 56 °F 55 °F 64 °F (1999)
Min Temperature 34 °F 35 °F 21 °F (2013)
Degree Days  
Heating Degree Days 20    
Moisture  
Dew Point 29 °F    
Average Humidity 56    
Maximum Humidity 93    
Minimum Humidity 20    
Precipitation  
Precipitation 0.00 in 0.05 in - ()
Sea Level Pressure  
Sea Level Pressure 30.47 in    
Wind  
Wind Speed 6 mph ()    
Max Wind Speed 12 mph    
Max Gust Speed -    
Visibility 6.0 miles    
Events      
Averages and records for this station are not official NWS values.
T = Trace of Precipitation, MM = Missing Value Source: Averaged Metar Reports

Daily Weather History Graph

Daily Weather History Graph

Search for Another Location

Airport or City:

Trip Planner

Search our weather history database for the weather conditions in past years. The results will help you decide how hot, cold, wet, or windy it might be!

Date:

Astronomy

Mar. 26, 2012 Rise Set
Actual Time 6:51 AM CEST 7:25 PM CEST
Civil Twilight 6:19 AM CEST 7:58 PM CEST
Nautical Twilight 5:40 AM CEST 8:37 PM CEST
Astronomical Twilight 5:00 AM CEST 9:18 PM CEST
Moon 8:05 AM CEST (3/26) 11:48 PM CEST (3/26)
Length of Visible Light 13h 38m
Length of Day
12h 33m
Waxing Crescent, 13% of the Moon is Illuminated
Mar 26
Waxing Crescent
Mar 30
First Quarter
Apr 6
Full
Apr 13
Last Quarter
Apr 21
New

Hourly Weather History & Observations

Time (CEST) Temp. Windchill Dew Point Humidity Pressure Visibility Wind Dir Wind Speed Gust Speed Precip Events Conditions
12:00 AM 46.4 °F 42.4 °F 33.8 °F 62% 30.39 in - NW 8.1 mph - N/A   Clear
12:30 AM 44.6 °F 40.7 °F 33.8 °F 66% 30.42 in - NW 6.9 mph - N/A   Clear
1:00 AM 44.6 °F 40.7 °F 33.8 °F 66% 30.42 in - NW 6.9 mph - N/A   Clear
1:30 AM 42.8 °F 36.6 °F 33.8 °F 70% 30.42 in - NNW 11.5 mph - N/A   Clear
2:00 AM 42 °F - 35 °F 66% 30.48 in 31 mi NNW 11.2 mph - -  
2:00 AM 41.0 °F 36.4 °F 33.8 °F 76% 30.42 in - NW 6.9 mph - N/A   Clear
2:30 AM 42.8 °F 37.0 °F 33.8 °F 70% 30.42 in - NNW 10.4 mph - N/A   Clear
3:00 AM 41.0 °F 36.4 °F 35.6 °F 81% 30.42 in - NNW 6.9 mph - N/A   Clear
3:30 AM 41.0 °F 34.7 °F 35.6 °F 81% 30.45 in - NNW 10.4 mph - N/A   Clear
4:00 AM 41.0 °F 35.2 °F 35.6 °F 81% 30.45 in - NNW 9.2 mph - N/A   Clear
4:30 AM 39.2 °F 33.6 °F 35.6 °F 87% 30.45 in - NW 8.1 mph - N/A   Clear
5:00 AM 39.2 °F 33.6 °F 33.8 °F 81% 30.45 in - NW 8.1 mph - N/A   Clear
5:30 AM 37.4 °F 32.1 °F 33.8 °F 87% 30.45 in - NNW 6.9 mph - N/A   Clear
6:00 AM 37.4 °F 31.4 °F 33.8 °F 87% 30.45 in - NNW 8.1 mph - N/A   Clear
6:30 AM 35.6 °F 32.8 °F 33.8 °F 93% 30.45 in - NNW 3.5 mph - N/A   Clear
7:00 AM 33.8 °F 27.7 °F 32.0 °F 93% 30.45 in - NNW 6.9 mph - N/A   Clear
7:30 AM 35.6 °F 31.7 °F 33.8 °F 93% 30.45 in - North 4.6 mph - N/A   Clear
8:00 AM 38 °F - 35 °F 86% 30.53 in 6 mi NNE 6.7 mph - -   Clear
8:00 AM 37.4 °F - 35.6 °F 93% 30.48 in - Variable 2.3 mph - N/A   Clear
8:30 AM 41.0 °F 39.0 °F 35.6 °F 81% 30.48 in - North 3.5 mph - N/A   Clear
9:00 AM 41.0 °F 38.0 °F 33.8 °F 76% 30.48 in - North 4.6 mph - N/A   Clear
9:30 AM 41.0 °F 38.0 °F 33.8 °F 76% 30.51 in - North 4.6 mph - N/A   Clear
10:00 AM 42.8 °F - 33.8 °F 70% 30.51 in - Variable 2.3 mph - N/A   Clear
10:30 AM 44.6 °F - 33.8 °F 66% 30.51 in - Variable 2.3 mph - N/A   Clear
11:00 AM 44.6 °F 43.1 °F 33.8 °F 66% 30.51 in - Variable 3.5 mph - N/A   Clear
11:30 AM 46.4 °F 44.3 °F 33.8 °F 62% 30.51 in - WSW 4.6 mph - N/A   Clear
12:00 PM 48.2 °F - 30.2 °F 50% 30.51 in - West 4.6 mph - N/A   Clear
12:30 PM 50.0 °F - 26.6 °F 40% 30.51 in - WNW 4.6 mph - N/A   Clear
1:00 PM 50.0 °F - 24.8 °F 37% 30.51 in - North 5.8 mph - N/A   Clear
1:30 PM 51.8 °F - 28.4 °F 41% 30.51 in - NW 5.8 mph - N/A   Clear
2:00 PM 53 °F - 25 °F 22% 30.52 in 44 mi North 6.7 mph - -   Clear
2:00 PM 51.8 °F - 24.8 °F 35% 30.51 in - NNW 6.9 mph - N/A   Clear
2:30 PM 53.6 °F - 23.0 °F 30% 30.48 in - North 5.8 mph - N/A   Clear
3:00 PM 53.6 °F - 23.0 °F 30% 30.48 in - NNE 5.8 mph - N/A   Clear
3:30 PM 55.4 °F - 23.0 °F 29% 30.48 in - NNE 5.8 mph - N/A   Clear
4:00 PM 55.4 °F - 23.0 °F 29% 30.48 in - North 5.8 mph - N/A   Clear
4:30 PM 55.4 °F - 23.0 °F 29% 30.48 in - Variable 3.5 mph - N/A   Clear
5:00 PM 55.4 °F - 21.2 °F 26% 30.45 in - WNW 5.8 mph - N/A   Clear
5:30 PM 55.4 °F - 21.2 °F 26% 30.45 in - Variable 3.5 mph - N/A   Clear
6:00 PM 55.4 °F - 19.4 °F 25% 30.45 in - NNW 3.5 mph - N/A   Clear
6:30 PM 53.6 °F - 21.2 °F 28% 30.45 in - North 6.9 mph - N/A   Clear
7:00 PM 51.8 °F - 17.6 °F 26% 30.45 in - NE 8.1 mph - N/A   Clear
7:30 PM 50.0 °F - 17.6 °F 28% 30.45 in - NE 6.9 mph - N/A   Clear
8:00 PM 48 °F - 20 °F 20% 30.49 in 47 mi NNE 6.7 mph - -   Clear
8:00 PM 48.2 °F - 19.4 °F 32% 30.45 in - NNE 5.8 mph - N/A   Clear
8:30 PM 48.2 °F - 21.2 °F 34% 30.48 in - NNE 6.9 mph - N/A   Clear
9:00 PM 48.2 °F - 24.8 °F 40% 30.48 in - NE 6.9 mph - N/A   Clear
9:30 PM 46.4 °F 43.5 °F 24.8 °F 43% 30.48 in - NNE 5.8 mph - N/A   Clear
10:00 PM 44.6 °F 43.1 °F 24.8 °F 46% 30.48 in - North 3.5 mph - N/A   Clear
10:30 PM 44.6 °F - 24.8 °F 46% 30.48 in - NNW 2.3 mph - N/A   Clear
11:00 PM 41.0 °F - 23.0 °F 49% 30.48 in - Variable 2.3 mph - N/A   Clear
11:30 PM 41.0 °F 39.0 °F 24.8 °F 53% 30.48 in - WSW 3.5 mph - N/A   Clear